User: anonymous   Login
Location: Ku?niki
(51.4449°N, 17.8974°E)
Time: 15:19:32
(UTC+00:00)
Language:

H-2A R/B - Orbit

View from above orbital plane
View from above orbital plane
View from above satellite
View from above satellite

Ground track
Ground track

The orbit data is extracted from the following two-line orbital elements,

1 27601U 02056E   20340.35922750  .00000097  00000-0  49673-4 0  9990
2 27601  98.2088   7.1888 0073123 128.0137 243.5634 14.31988439939146
Epoch (UTC): 05 December 2020 08:37:17
Eccentricity: 0.0073123
inclination: 98.2088°
perigee height: 733 km
apogee height: 837 km
right ascension of ascending node: 7.1888°
argument of perigee: 128.0137°
revolutions per day: 14.31988439
mean anomaly at epoch: 243.5634°
orbit number at epoch: 93914

The dashed part of the orbit path shows where the satellite is in the earth's shadow,  

DLR